timestamp,surface_pressure_avg,surface_temp_avg,battery_voltage,lat,long
2020-02-17 00:09:01+00:00,213.8964,0.4,12.65,47.84626,-54.09684
2020-02-17 00:19:01+00:00,216.053,0.4,12.65,47.84626,-54.09684
2020-02-17 00:29:01+00:00,220.8448,0.4,12.65,47.84626,-54.09684
2020-02-17 00:39:01+00:00,221.9664,0.4,12.65,47.84626,-54.09684
2020-02-17 00:49:01+00:00,216.7631,0.3,12.65,47.84626,-54.09684
2020-02-17 00:59:01+00:00,215.6098,0.2,12.65,47.84626,-54.09684
2020-02-17 01:09:01+00:00,220.8647,0.26,12.65,47.84626,-54.09684
2020-02-17 01:19:01+00:00,221.8331,0.2,12.57,47.84626,-54.09684
2020-02-17 01:29:01+00:00,218.6098,0.16,12.57,47.84626,-54.09684
2020-02-17 01:39:01+00:00,219.5014,0.13,12.57,47.84626,-54.09684
2020-02-17 01:49:01+00:00,222.0031,0.11,12.57,47.84626,-54.09684
2020-02-17 01:59:01+00:00,225.3931,0.1,12.57,47.84626,-54.09684
2020-02-17 02:09:01+00:00,227.5815,0.1,12.57,47.84626,-54.09684
2020-02-17 02:19:01+00:00,232.6081,0.1,12.57,47.84626,-54.09684
2020-02-17 02:29:01+00:00,236.5531,0.1,12.57,47.84626,-54.09684
2020-02-17 02:39:01+00:00,238.6797,0.1,12.57,47.84626,-54.09684
2020-02-17 02:49:01+00:00,242.6948,0.1,12.57,47.84626,-54.09684
2020-02-17 02:59:01+00:00,248.6331,0.1,12.57,47.84626,-54.09684
2020-02-17 03:09:01+00:00,253.2814,0.1,12.57,47.84626,-54.09684
2020-02-17 03:19:01+00:00,257.7864,0.09,12.57,47.84626,-54.09684
2020-02-17 03:29:01+00:00,263.5014,0.06,12.57,47.84626,-54.09684
2020-02-17 03:39:01+00:00,267.7614,0.04,12.57,47.84626,-54.09684
2020-02-17 03:49:01+00:00,273.8113,0.02,12.57,47.84626,-54.09684
2020-02-17 03:59:01+00:00,282.113,0.01,12.57,47.84626,-54.09684
2020-02-17 04:09:01+00:00,289.1964,0.01,12.57,47.84626,-54.09684
2020-02-17 04:19:01+00:00,292.483,0.0,12.57,47.84626,-54.09684
2020-02-17 04:29:01+00:00,300.948,0.0,12.57,47.84626,-54.09684
2020-02-17 04:39:01+00:00,306.3447,0.0,12.57,47.84626,-54.09684
2020-02-17 04:49:01+00:00,307.0447,0.0,12.57,47.84626,-54.09684
2020-02-17 04:59:01+00:00,304.6864,0.0,12.57,47.84626,-54.09684
2020-02-17 05:09:01+00:00,307.46299999999997,0.0,12.57,47.84626,-54.09684
2020-02-17 05:19:01+00:00,313.338,0.0,12.57,47.84626,-54.09684
2020-02-17 05:29:01+00:00,318.9379,0.0,12.57,47.84626,-54.09684
2020-02-17 05:39:01+00:00,320.793,0.0,12.57,47.84626,-54.09684
2020-02-17 05:49:01+00:00,322.1514,0.0,12.57,47.84626,-54.09684
2020-02-17 05:59:01+00:00,324.843,0.0,12.57,47.84626,-54.09684
2020-02-17 06:09:01+00:00,330.23800000000006,0.0,12.57,47.84626,-54.09684
2020-02-17 06:19:01+00:00,332.5013,0.0,12.57,47.84626,-54.09684
2020-02-17 06:29:01+00:00,329.7697,0.0,12.57,47.84626,-54.09684
2020-02-17 06:39:01+00:00,330.1380000000001,0.0,12.57,47.84626,-54.09684
2020-02-17 06:49:01+00:00,333.9214,0.0,12.57,47.84626,-54.09684
2020-02-17 06:59:01+00:00,331.2064,0.0,12.57,47.84626,-54.09684
2020-02-17 07:09:01+00:00,326.1479,0.0,12.57,47.84626,-54.09684
2020-02-17 07:19:01+00:00,326.2712,0.0,12.57,47.84626,-54.09684
2020-02-17 07:29:01+00:00,329.7364,0.0,12.57,47.84626,-54.09684
2020-02-17 07:39:01+00:00,324.9013,0.0,12.57,47.84626,-54.09684
2020-02-17 07:49:01+00:00,321.843,0.0,12.57,47.84626,-54.09684
2020-02-17 07:59:01+00:00,321.0447,0.0,12.57,47.84626,-54.09684
2020-02-17 08:09:01+00:00,313.6296,0.0,12.57,47.84626,-54.09684
2020-02-17 08:19:01+00:00,304.033,0.0,12.57,47.84626,-54.09684
2020-02-17 08:29:01+00:00,299.033,0.0,12.57,47.84626,-54.09684
2020-02-17 08:39:01+00:00,295.4363,0.0,12.57,47.84626,-54.09684
2020-02-17 08:49:01+00:00,284.9131,-0.01,12.57,47.84626,-54.09684
2020-02-17 08:59:01+00:00,273.7897,-0.01,12.57,47.84626,-54.09684
2020-02-17 09:09:01+00:00,269.813,-0.01,12.57,47.84626,-54.09684
2020-02-17 09:19:01+00:00,267.9248,-0.0,12.57,47.84626,-54.09684
2020-02-17 09:29:01+00:00,263.5697,-0.0,12.57,47.84626,-54.09684
2020-02-17 09:39:01+00:00,253.3214,-0.01,12.57,47.84626,-54.09684
2020-02-17 09:49:01+00:00,244.9214,-0.03,12.57,47.84626,-54.09684
2020-02-17 09:59:01+00:00,243.278,-0.04,12.57,47.84626,-54.09684
2020-02-17 10:09:01+00:00,241.8547,-0.04,12.57,47.84626,-54.09684
2020-02-17 10:19:01+00:00,237.2814,-0.04,12.57,47.84626,-54.09684
2020-02-17 10:29:01+00:00,233.3447,-0.04,12.57,47.84626,-54.09684
2020-02-17 10:39:01+00:00,233.0748,-0.05,12.57,47.84626,-54.09684
2020-02-17 10:49:01+00:00,234.4631,-0.03,12.57,47.84626,-54.09684
2020-02-17 10:59:01+00:00,233.8298,-0.02,12.57,47.84626,-54.09684
2020-02-17 11:09:01+00:00,233.1548,-0.02,12.57,47.84626,-54.09684
2020-02-17 11:19:01+00:00,231.9348,-0.02,12.57,47.84626,-54.09684
2020-02-17 11:29:01+00:00,233.1965,-0.03,12.57,47.84626,-54.09684
2020-02-17 11:39:01+00:00,234.8964,-0.03,12.57,47.84626,-54.09684
2020-02-17 11:49:01+00:00,232.8014,-0.04,12.57,47.84626,-54.09684
2020-02-17 11:59:01+00:00,235.8014,-0.05,12.57,47.84626,-54.09684
2020-02-17 12:09:01+00:00,233.6364,-0.07,12.57,47.84626,-54.09684
2020-02-17 12:19:01+00:00,226.6548,-0.1,12.57,47.84626,-54.09684
2020-02-17 12:29:01+00:00,229.8281,-0.07,12.57,47.84626,-54.09684
2020-02-17 12:39:01+00:00,236.6948,-0.03,12.57,47.84626,-54.09684
2020-02-17 12:49:01+00:00,236.8681,-0.02,12.57,47.84626,-54.09684
2020-02-17 12:59:01+00:00,233.9247,-0.03,12.57,47.84626,-54.09684
2020-02-17 13:09:01+00:00,231.6047,-0.05,12.57,47.84626,-54.09684
2020-02-17 13:19:01+00:00,229.3615,-0.06,12.73,47.84626,-54.09684
2020-02-17 13:29:01+00:00,226.9098,-0.1,12.73,47.84626,-54.09684
2020-02-17 13:39:01+00:00,225.9798,-0.11,12.73,47.84626,-54.09684
2020-02-17 13:49:01+00:00,230.1864,-0.13,12.73,47.84626,-54.09684
2020-02-17 13:59:01+00:00,230.3898,-0.15,12.73,47.84626,-54.09684
2020-02-17 14:09:01+00:00,229.4231,-0.2,12.73,47.84626,-54.09684
2020-02-17 14:19:01+00:00,227.9947,-0.2,13.05,47.84626,-54.09684
2020-02-17 14:29:01+00:00,232.6864,-0.2,13.05,47.84626,-54.09684
2020-02-17 14:39:01+00:00,237.2547,-0.12,13.05,47.84626,-54.09684
2020-02-17 14:49:01+00:00,237.188,-0.1,13.05,47.84626,-54.09684
2020-02-17 14:59:01+00:00,236.6598,-0.1,13.05,47.84626,-54.09684
2020-02-17 15:09:01+00:00,238.0464,-0.1,13.05,47.84626,-54.09684
2020-02-17 15:19:01+00:00,240.0731,-0.1,13.21,47.84626,-54.09684
2020-02-17 15:29:01+00:00,242.6131,-0.1,13.21,47.84626,-54.09684
2020-02-17 15:39:01+00:00,246.5714,-0.1,13.21,47.84626,-54.09684
2020-02-17 15:49:01+00:00,254.1598,-0.1,13.21,47.84626,-54.09684
2020-02-17 15:59:01+00:00,260.238,-0.1,13.21,47.84626,-54.09684
2020-02-17 16:09:01+00:00,262.5914,-0.1,13.21,47.84626,-54.09684
2020-02-17 16:19:01+00:00,269.0514,-0.1,13.21,47.84626,-54.09684
2020-02-17 16:29:01+00:00,278.6047,-0.1,13.21,47.84626,-54.09684
2020-02-17 16:39:01+00:00,285.3047,-0.13,13.21,47.84626,-54.09684
2020-02-17 16:49:01+00:00,290.548,-0.19,13.21,47.84626,-54.09684
2020-02-17 16:59:01+00:00,296.7397,-0.2,13.21,47.84626,-54.09684
2020-02-17 17:09:01+00:00,299.4264,-0.18,13.21,47.84626,-54.09684
2020-02-17 17:19:01+00:00,298.4181,-0.14,13.29,47.84626,-54.09684
2020-02-17 17:29:01+00:00,302.693,-0.14,13.29,47.84626,-54.09684
2020-02-17 17:39:01+00:00,307.0096,-0.12,13.29,47.84626,-54.09684
2020-02-17 17:49:01+00:00,308.8846,-0.1,13.29,47.84626,-54.09684
2020-02-17 17:59:01+00:00,312.093,-0.1,13.29,47.84626,-54.09684
2020-02-17 18:09:01+00:00,314.943,-0.1,13.29,47.84626,-54.09684
2020-02-17 18:19:01+00:00,312.538,-0.1,13.44,47.84626,-54.09684
2020-02-17 18:29:01+00:00,307.5663,-0.1,13.44,47.84626,-54.09684
2020-02-17 18:39:01+00:00,312.2496,-0.1,13.44,47.84626,-54.09684
2020-02-17 18:49:01+00:00,318.4514,-0.1,13.44,47.84626,-54.09684
2020-02-17 18:59:01+00:00,318.1996,-0.05,13.44,47.84626,-54.09684
2020-02-17 19:09:01+00:00,317.8513,-0.04,13.44,47.84626,-54.09684
2020-02-17 19:19:01+00:00,320.9363,-0.03,13.29,47.84626,-54.09684
2020-02-17 19:29:01+00:00,319.058,-0.01,13.29,47.84626,-54.09684
2020-02-17 19:39:01+00:00,313.113,-0.03,13.29,47.84626,-54.09684
2020-02-17 19:49:01+00:00,316.1763,-0.03,13.29,47.84626,-54.09684
2020-02-17 19:59:01+00:00,320.8947,-0.02,13.29,47.84626,-54.09684
2020-02-17 20:09:01+00:00,315.6829,-0.02,13.29,47.84626,-54.09684
2020-02-17 20:19:01+00:00,312.4113,-0.07,12.97,47.84626,-54.09684
2020-02-17 20:29:01+00:00,313.1163,-0.09,12.97,47.84626,-54.09684
2020-02-17 20:39:01+00:00,308.3414,-0.06,12.97,47.84626,-54.09684
2020-02-17 20:49:01+00:00,299.0613,-0.04,12.97,47.84626,-54.09684
2020-02-17 20:59:01+00:00,295.9363,-0.02,12.97,47.84626,-54.09684
2020-02-17 21:09:01+00:00,296.348,-0.0,12.97,47.84626,-54.09684
2020-02-17 21:19:01+00:00,288.7447,-0.0,12.73,47.84626,-54.09684
2020-02-17 21:29:01+00:00,276.8381,-0.02,12.73,47.84626,-54.09684
2020-02-17 21:39:01+00:00,273.6897,-0.02,12.73,47.84626,-54.09684
2020-02-17 21:49:01+00:00,277.9997,-0.03,12.73,47.84626,-54.09684
2020-02-17 21:59:01+00:00,272.2348,-0.1,12.73,47.84626,-54.09684
2020-02-17 22:09:01+00:00,260.4781,-0.1,12.73,47.84626,-54.09684
2020-02-17 22:19:01+00:00,251.1631,-0.1,12.65,47.84626,-54.09684
2020-02-17 22:29:01+00:00,249.2464,-0.1,12.65,47.84626,-54.09684
2020-02-17 22:39:01+00:00,244.7814,-0.3,12.65,47.84626,-54.09684
2020-02-17 22:49:01+00:00,240.6881,-0.34,12.65,47.84626,-54.09684
2020-02-17 22:59:01+00:00,240.0014,-0.4,12.65,47.84626,-54.09684
2020-02-17 23:09:01+00:00,240.5764,-0.4,12.65,47.84626,-54.09684
2020-02-17 23:19:01+00:00,234.2348,-0.46,12.65,47.84626,-54.09684
2020-02-17 23:29:01+00:00,225.4598,-0.46,12.65,47.84626,-54.09684
2020-02-17 23:39:01+00:00,228.4615,-0.4,12.65,47.84626,-54.09684
2020-02-17 23:49:01+00:00,233.7215,-0.4,12.65,47.84626,-54.09684
2020-02-17 23:59:01+00:00,228.6898,-0.4,12.65,47.84626,-54.09684
